Terminal Aerodrome Forecast
Issued by NWS Chicago, IL

Home | Current Version | Previous Version | Graphics & Text | Print | Product List | Glossary On
Versions: 1 2 3 4 5 6 7 8 9 10 11 12 13 14 15 16 17 18 19 20 21 22 23 24 25 26 27 28 29 30 31 32 33
000
FTUS43 KLOT 191700
TAFRFD
TAF
KRFD 191720Z 1918/2018 18015G22KT P6SM FEW250
     FM200000 18013KT P6SM SCT250
     FM200300 19013G18KT P6SM SCT250
     FM201400 23013G19KT P6SM SCT040 BKN150=

USA.gov is the U.S. government's official web portal to all federal, state and local government web resources and services.